TimeCDT,TemperatureF,Dew PointF,Humidity,Sea Level PressureIn,VisibilityMPH,Wind Direction,Wind SpeedMPH,Gust SpeedMPH,PrecipitationIn,Events,Conditions,WindDirDegrees,DateUTC
12:15 AM,66.2,66.2,100,29.83,10.0,East,8.1,-,N/A,,Overcast,100,2013-05-17 05:15:00
12:35 AM,64.4,64.4,100,29.83,10.0,ESE,8.1,-,N/A,,Overcast,110,2013-05-17 05:35:00
12:55 AM,64.4,64.4,100,29.82,7.0,ESE,9.2,-,N/A,,Overcast,120,2013-05-17 05:55:00
1:15 AM,64.4,64.4,100,29.82,5.0,ESE,8.1,-,N/A,,Overcast,110,2013-05-17 06:15:00
1:35 AM,64.4,64.4,100,29.82,5.0,ESE,6.9,-,N/A,,Overcast,110,2013-05-17 06:35:00
1:55 AM,64.4,64.4,100,29.82,5.0,ESE,10.4,-,N/A,,Overcast,110,2013-05-17 06:55:00
2:15 AM,64.4,64.4,100,29.81,4.0,ESE,11.5,-,N/A,,Overcast,110,2013-05-17 07:15:00
2:35 AM,64.4,64.4,100,29.82,4.0,ESE,8.1,-,N/A,,Overcast,120,2013-05-17 07:35:00
2:55 AM,64.4,64.4,100,29.82,2.5,SE,6.9,-,N/A,,Overcast,130,2013-05-17 07:55:00
3:15 AM,64.4,64.4,100,29.82,2.5,ESE,9.2,-,N/A,,Overcast,120,2013-05-17 08:15:00
3:35 AM,64.4,64.4,100,29.82,2.5,East,8.1,-,N/A,,Overcast,100,2013-05-17 08:35:00
3:55 AM,64.4,64.4,100,29.83,2.5,East,8.1,-,N/A,,Overcast,80,2013-05-17 08:55:00
4:15 AM,64.4,64.4,100,29.84,4.0,ENE,10.4,-,N/A,,Overcast,70,2013-05-17 09:15:00
4:35 AM,64.4,64.4,100,29.85,4.0,East,8.1,-,N/A,,Overcast,80,2013-05-17 09:35:00
4:55 AM,64.4,64.4,100,29.84,5.0,ENE,8.1,-,N/A,,Overcast,70,2013-05-17 09:55:00
5:15 AM,64.4,64.4,100,29.84,4.0,East,8.1,-,N/A,,Overcast,80,2013-05-17 10:15:00
5:35 AM,64.4,64.4,100,29.83,4.0,East,10.4,-,N/A,,Overcast,80,2013-05-17 10:35:00
5:55 AM,64.4,64.4,100,29.83,4.0,East,8.1,-,N/A,,Overcast,100,2013-05-17 10:55:00
6:15 AM,64.4,64.4,100,29.82,3.0,ESE,8.1,-,N/A,,Overcast,110,2013-05-17 11:15:00
6:35 AM,64.4,64.4,100,29.83,3.0,East,9.2,-,N/A,,Overcast,100,2013-05-17 11:35:00
6:55 AM,64.4,64.4,100,29.82,2.5,ESE,10.4,-,N/A,,Overcast,110,2013-05-17 11:55:00
7:15 AM,64.4,64.4,100,29.82,3.0,SE,10.4,-,N/A,,Overcast,130,2013-05-17 12:15:00
7:35 AM,66.2,66.2,100,29.82,5.0,ESE,10.4,-,N/A,,Overcast,120,2013-05-17 12:35:00
7:55 AM,66.2,66.2,100,29.83,7.0,ESE,10.4,-,N/A,,Overcast,120,2013-05-17 12:55:00
8:15 AM,66.2,66.2,100,29.83,5.0,ESE,10.4,-,N/A,,Overcast,120,2013-05-17 13:15:00
8:35 AM,66.2,66.2,100,29.83,5.0,SE,9.2,-,N/A,,Overcast,130,2013-05-17 13:35:00
8:55 AM,68.0,68.0,100,29.84,5.0,ESE,8.1,-,N/A,,Overcast,120,2013-05-17 13:55:00
9:15 AM,68.0,68.0,100,29.84,7.0,ESE,5.8,-,N/A,,Overcast,120,2013-05-17 14:15:00
9:35 AM,68.0,68.0,100,29.85,10.0,East,8.1,-,N/A,,Overcast,100,2013-05-17 14:35:00
9:55 AM,68.0,68.0,100,29.85,10.0,East,10.4,-,N/A,,Overcast,100,2013-05-17 14:55:00
10:15 AM,68.0,68.0,100,29.85,10.0,East,9.2,-,N/A,,Overcast,80,2013-05-17 15:15:00
10:35 AM,68.0,68.0,100,29.86,5.0,East,9.2,-,N/A,,Overcast,80,2013-05-17 15:35:00
10:55 AM,68.0,68.0,100,29.86,4.0,East,10.4,-,N/A,,Overcast,90,2013-05-17 15:55:00
11:15 AM,68.0,68.0,100,29.86,3.0,East,9.2,-,N/A,,Overcast,100,2013-05-17 16:15:00
11:35 AM,68.0,68.0,100,29.86,5.0,ESE,10.4,-,N/A,,Overcast,110,2013-05-17 16:35:00
11:55 AM,69.8,69.8,100,29.86,10.0,East,9.2,-,N/A,,Overcast,100,2013-05-17 16:55:00
12:15 PM,71.6,71.6,100,29.86,10.0,East,8.1,-,N/A,,Overcast,100,2013-05-17 17:15:00
12:35 PM,73.4,73.4,100,29.86,10.0,East,9.2,-,N/A,,Overcast,100,2013-05-17 17:35:00
12:55 PM,77.0,73.4,89,29.85,10.0,East,9.2,-,N/A,,Mostly Cloudy,90,2013-05-17 17:55:00
1:15 PM,77.0,73.4,89,29.85,10.0,ESE,9.2,-,N/A,,Mostly Cloudy,120,2013-05-17 18:15:00
1:35 PM,80.6,73.4,79,29.84,10.0,East,6.9,-,N/A,,Scattered Clouds,100,2013-05-17 18:35:00
1:55 PM,80.6,73.4,79,29.84,10.0,SE,10.4,-,N/A,,Mostly Cloudy,130,2013-05-17 18:55:00
2:15 PM,80.6,73.4,79,29.83,10.0,ESE,10.4,-,N/A,,Mostly Cloudy,120,2013-05-17 19:15:00
2:35 PM,82.4,73.4,74,29.83,10.0,ESE,12.7,-,N/A,,Mostly Cloudy,110,2013-05-17 19:35:00
2:55 PM,82.4,73.4,74,29.82,10.0,SE,11.5,-,N/A,,Mostly Cloudy,130,2013-05-17 19:55:00
3:15 PM,84.2,73.4,70,29.82,10.0,ESE,13.8,-,N/A,,Scattered Clouds,110,2013-05-17 20:15:00
3:35 PM,86.0,73.4,66,29.81,10.0,ESE,12.7,-,N/A,,Scattered Clouds,120,2013-05-17 20:35:00
3:55 PM,86.0,73.4,66,29.80,10.0,ESE,13.8,18.4,N/A,,Scattered Clouds,120,2013-05-17 20:55:00
4:15 PM,86.0,73.4,66,29.80,10.0,ESE,11.5,-,N/A,,Scattered Clouds,120,2013-05-17 21:15:00
4:35 PM,84.2,73.4,70,29.80,10.0,ESE,11.5,-,N/A,,Scattered Clouds,120,2013-05-17 21:35:00
4:55 PM,84.2,73.4,70,29.79,10.0,ESE,11.5,-,N/A,,Mostly Cloudy,110,2013-05-17 21:55:00
5:15 PM,86.0,73.4,66,29.78,10.0,ESE,12.7,19.6,N/A,,Scattered Clouds,110,2013-05-17 22:15:00
5:35 PM,86.0,71.6,62,29.78,10.0,ESE,12.7,17.3,N/A,,Scattered Clouds,120,2013-05-17 22:35:00
5:55 PM,86.0,73.4,66,29.78,10.0,ESE,11.5,-,N/A,,Scattered Clouds,120,2013-05-17 22:55:00
6:15 PM,86.0,71.6,62,29.78,10.0,ESE,15.0,-,N/A,,Scattered Clouds,120,2013-05-17 23:15:00
6:35 PM,86.0,71.6,62,29.79,10.0,SE,12.7,20.7,N/A,,Scattered Clouds,140,2013-05-17 23:35:00
6:55 PM,84.2,73.4,70,29.79,10.0,SE,13.8,17.3,N/A,,Scattered Clouds,140,2013-05-17 23:55:00
7:35 PM,82.4,71.6,70,29.79,10.0,SE,11.5,-,N/A,,Clear,130,2013-05-18 00:35:00
7:55 PM,80.6,71.6,74,29.81,10.0,SE,11.5,-,N/A,,Scattered Clouds,140,2013-05-18 00:55:00
8:15 PM,80.6,71.6,74,29.81,10.0,SE,6.9,-,N/A,,Scattered Clouds,140,2013-05-18 01:15:00
8:35 PM,78.8,73.4,83,29.81,10.0,ESE,6.9,-,N/A,,Scattered Clouds,120,2013-05-18 01:35:00
8:55 PM,78.8,73.4,83,29.82,10.0,ESE,6.9,-,N/A,,Clear,110,2013-05-18 01:55:00
9:15 PM,77.0,73.4,89,29.81,10.0,ESE,6.9,-,N/A,,Clear,110,2013-05-18 02:15:00
9:35 PM,77.0,73.4,89,29.82,10.0,ESE,9.2,-,N/A,,Clear,110,2013-05-18 02:35:00
9:55 PM,77.0,73.4,89,29.83,10.0,East,8.1,-,N/A,,Clear,100,2013-05-18 02:55:00
10:15 PM,75.2,73.4,94,29.84,10.0,ESE,9.2,-,N/A,,Clear,120,2013-05-18 03:15:00
10:35 PM,75.2,73.4,94,29.83,10.0,ESE,10.4,-,N/A,,Clear,110,2013-05-18 03:35:00
10:55 PM,75.2,73.4,94,29.83,10.0,ESE,9.2,-,N/A,,Clear,110,2013-05-18 03:55:00
11:15 PM,75.2,73.4,94,29.82,10.0,ESE,9.2,-,N/A,,Clear,110,2013-05-18 04:15:00
11:35 PM,73.4,73.4,100,29.82,10.0,ESE,8.1,-,N/A,,Clear,110,2013-05-18 04:35:00
11:55 PM,73.4,73.4,100,29.83,10.0,ESE,9.2,-,N/A,,Clear,120,2013-05-18 04:55:00